This demonstration page uses our WeatherBlox Daily Observations layout. Learn more.

Left ArrowRight Arrow

Hourly Observations for October 7, 2018

Temp ( °F °C ) Dew Point ( °F °C ) Humidity (%) Winds ( mph kmh ) Pressure ( in mb ) Visibility ( mi km ) Precip ( " mm )
12:53 am 00:53 Cloudy 47 8.3 40 4.4 77 77 E 12 19 30.12 1020 10 16 0.00 0.00
1:31 am 01:31 Cloudy with Haze 46 8 41 5 82 82 E 8 13 30.12 1020 5 8 0.00 0.00
1:53 am 01:53 Cloudy with Mist and Fog 45 7.2 42 5.6 90 90 E 7 11 30.14 1021 4 6 0.00 0.00
2:33 am 02:33 Cloudy with Mist and Fog 45 7.2 43 6.1 93 93 ENE 7 11 30.12 1020 3 5 0.00 0.00
2:53 am 02:53 Cloudy with Mist and Fog 44 6.7 43 6.1 96 96 ENE 9 15 30.12 1020 4 6 0.00 0.00
3:26 am 03:26 Cloudy 44 6.7 43 6.1 96 96 ENE 9 15 30.15 1021 8 13 0.00 0.00
3:53 am 03:53 Cloudy 45 7.2 43 6.1 93 93 NE 9 15 30.10 1019 10 16 0.00 0.00
4:53 am 04:53 Cloudy 44 6.7 42 5.6 93 93 NE 13 20 30.06 1018 8 13 0.00 0.00
5:53 am 05:53 Cloudy 45 7.2 42 5.6 90 90 ENE 13 20 30.08 1019 7 11 0.00 0.00
6:53 am 06:53 Cloudy with Mist and Fog 44 6.7 43 6.1 96 96 E 12 19 30.08 1019 4 6 0.00 0.00
7:07 am 07:07 Cloudy with Mist and Fog 44 6.7 43 6.1 96 96 ENE 8 13 30.15 1021 4 6 0.00 0.00
7:53 am 07:53 Cloudy with Rain 44 6.7 43 6.1 96 96 E 3 6 30.14 1021 3 4 0.05 1.27
8:06 am 08:06 Cloudy with Heavy Rain 44 6.7 43 6.1 96 96 ENE 8 13 30.15 1021 2 3 0.07 1.78
8:12 am 08:12 Cloudy with Rain 44 6.7 43 6.1 96 96 E 8 13 30.15 1021 2 3 0.09 2.29
8:28 am 08:28 Cloudy with Rain 44 6.7 43 6.1 96 96 E 12 19 30.15 1021 2 3 0.14 3.56
8:37 am 08:37 Cloudy with Rain 44 6.7 43 6.1 96 96 ENE 12 19 30.15 1021 2 3 0.16 4.06
8:53 am 08:53 Cloudy with Light Rain 44 6.7 43 6.1 96 96 ENE 12 19 30.09 1019 3 4 0.18 4.57
9:04 am 09:04 Cloudy with Light Rain 43 6 43 6 100 100 ENE 13 20 30.15 1021 3 5 0.00 0.00
9:16 am 09:16 Cloudy with Light Rain 43 6 43 6 100 100 ENE 12 19 30.15 1021 5 8 0.00 0.00
9:53 am 09:53 Cloudy with Light Rain 43 6.1 42 5.6 97 97 ENE 9 15 30.11 1020 3 5 0.04 1.02
10:05 am 10:05 Cloudy with Rain 43 6.1 42 5.6 97 97 E 9 15 30.15 1021 2 3 0.02 0.51
10:25 am 10:25 Cloudy with Light Rain 43 6.1 42 5.6 97 97 ENE 10 17 30.15 1021 3 5 0.05 1.27
10:35 am 10:35 Cloudy with Rain 43 6 43 6 100 100 ENE 9 15 30.15 1021 3 4 0.00 0.00
10:44 am 10:44 Cloudy with Rain 43 6 43 6 100 100 E 9 15 30.15 1021 3 5 0.00 0.00
10:53 am 10:53 Cloudy with Light Rain 43 6.1 42 5.6 97 97 ENE 10 17 30.11 1020 3 4 0.09 2.29
11:00 am 11:00 Cloudy with Light Rain 43 6 43 6 100 100 ENE 9 15 30.15 1021 3 5 0.00 0.00
11:53 am 11:53 Cloudy with Light Rain 45 7.2 43 6.1 93 93 NE 9 15 30.09 1019 6 10 0.04 1.02
12:53 pm 12:53 Cloudy with Mist and Fog 45 7.2 44 6.7 97 97 ENE 10 17 30.08 1019 3 5 0.00 0.03
1:17 pm 13:17 Cloudy with Mist and Fog 45 7 45 7 100 100 ENE 10 17 30.09 1019 2 3 0.00 0.00
1:53 pm 13:53 Cloudy with Mist and Fog 46 7.8 45 7.2 96 96 E 9 15 30.05 1018 2 3 0.00 0.00
2:12 pm 14:12 Cloudy with Mist and Fog 46 8 45 7 93 93 ENE 7 11 30.06 1018 2 3 0.00 0.00
2:53 pm 14:53 Cloudy with Mist and Fog 46 7.8 46 7.8 100 100 E 6 9 30.06 1018 1 1 0.00 0.00
3:17 pm 15:17 Cloudy with Mist and Fog 46 8 46 8 100 100 E 7 11 30.06 1018 1 2 0.00 0.00
3:53 pm 15:53 Cloudy with Mist and Fog 48 8.9 47 8.3 96 96 ENE 13 20 30.01 1016 2 3 0.00 0.00
4:00 pm 16:00 Cloudy with Mist and Fog 48 9 46 8 94 94 ENE 12 19 30.03 1017 3 5 0.00 0.00
4:26 pm 16:26 Cloudy 48 9 46 8 94 94 E 10 17 30.03 1017 9 14 0.00 0.00
4:53 pm 16:53 Cloudy 48 8.9 47 8.3 96 96 ENE 10 17 30.02 1017 10 16 0.00 0.00
5:22 pm 17:22 Cloudy 48 9 46 8 94 94 E 9 15 30.03 1017 10 16 0.00 0.00
5:53 pm 17:53 Cloudy 48 8.9 47 8.3 96 96 ESE 10 17 30.00 1016 7 11 0.00 0.00
6:53 pm 18:53 Cloudy with Mist and Fog 48 8.9 47 8.3 96 96 NE 7 11 30.02 1017 4 6 0.00 0.00
7:24 pm 19:24 Cloudy with Light Rain 48 9 46 8 94 94 E 9 15 30.03 1017 5 8 0.00 0.00
7:31 pm 19:31 Cloudy with Light Rain 48 8.9 47 8.3 96 96 ENE 10 17 30.00 1016 3 4 0.00 0.03
7:46 pm 19:46 Cloudy with Mist and Fog 48 9 46 8 94 94 E 8 13 30.03 1017 4 6 0.00 0.00
7:53 pm 19:53 Cloudy with Mist and Fog 48 8.9 47 8.3 96 96 E 9 15 30.01 1016 4 6 0.00 0.03
8:44 pm 20:44 Cloudy with Mist and Fog 48 8.9 47 8.3 96 96 E 10 17 30.00 1016 2 3 0.01 0.25
8:53 pm 20:53 Cloudy with Mist and Fog 48 8.9 47 8.3 96 96 ENE 14 22 29.97 1015 4 6 0.01 0.25
8:58 pm 20:58 Cloudy with Mist and Fog 48 9 46 8 94 94 ENE 12 19 30.00 1016 2 3 0.00 0.00
9:53 pm 21:53 Mostly Cloudy with Mist and Fog 48 8.9 48 8.9 100 100 NE 10 17 30.01 1016 1 1 0.00 0.00
10:16 pm 22:16 Cloudy with Mist and Fog 48 8.9 48 8.9 100 100 NE 10 17 30.00 1016 1 2 0.00 0.00
10:43 pm 22:43 Cloudy with Mist and Fog 48 8.9 48 8.9 100 100 NE 9 15 30.00 1016 2 3 0.00 0.00
10:53 pm 22:53 Cloudy with Mist and Fog 48 8.9 48 8.9 100 100 NE 10 17 29.99 1016 3 4 0.00 0.00
11:04 pm 23:04 Cloudy with Mist and Fog 48 8.9 48 8.9 100 100 NE 8 13 30.00 1016 4 6 0.00 0.00
11:24 pm 23:24 Cloudy with Mist and Fog 48 9 48 9 100 100 NNE 8 13 30.03 1017 2 3 0.00 0.00
11:36 pm 23:36 Cloudy with Mist and Fog 48 8.9 48 8.9 100 100 NNE 6 9 30.03 1017 3 5 0.00 0.00
11:53 pm 23:53 Cloudy with Mist and Fog 48 8.9 48 8.9 100 100 N 5 7 30.00 1016 3 5 0.00 0.00

Powered by AerisWeather